Regional Weather Roundup
Issued by NWS

Home | Current Version | Previous Version | Graphics & Text | Print | Product List | Glossary Off
Versions: 1 2 3 4 5 6 7 8 9 10 11 12 13 14 15 16 17 18 19 20 21 22 23 24 25 26 27 28 29 30 31 32 33 34 35 36 37 38 39 40 41 42 43 44 45 46 47 48 49 50

845
ASUS45 KBOU 260407
RWRCO

WEATHER ROUNDUP FOR COLORADO
NATIONAL WEATHER SERVICE DENVER/BOULDER CO
1000 PM MDT SAT MAR 25 2017

NOTE: "FAIR" INDICATES FEW OR NO CLOUDS BELOW 12000 FEET WITH NO
SIGNIFICANT WEATHER AND/OR OBSTRUCTIONS TO VISIBILITY.

COZ001>005-013-030-031-260500-
...NORTHWEST COLORADO...

CITY           SKY/WX    TMP DP  RH WIND       PRES   REMARKS
CRAIG          MOCLDY    43  33  68 W3        29.92R
HAYDEN         CLOUDY    43  28  56 CALM      29.92F
MEEKER         CLOUDY    44  34  67 N10       29.91S
MOUNT WERNER   NOT AVBL
STEAMBOAT SPGS CLOUDY    40  35  84 NW6       29.94S
WALDEN         NOT AVBL
$$

COZ006>008-011-260500-
...WEST CENTRAL VALLEYS...

CITY           SKY/WX    TMP DP  RH WIND       PRES   REMARKS
GRAND JUNCTION MOCLDY    47  37  68 NW5       29.87S
MONTROSE       CLOUDY    46  37  71 S9        29.93R
EAGLE          CLOUDY    45  34  65 NW7       29.96R
RIFLE          CLOUDY    47  37  68 E6        29.91F
DELTA          CLOUDY    51  33  50 SE6       29.90S
NUCLA          DRIZZLE   43  37  81 SE6       29.98F
$$

COZ017>023-064>068-260500-
...SOUTHWEST COLORADO...

CITY           SKY/WX    TMP DP  RH WIND       PRES   REMARKS
DURANGO        MOCLDY    39  33  79 SW15      29.96R
CORTEZ         LGT RAIN  40  38  93 E6        29.97F
PAGOSA SPRINGS LGT RAIN  42  32  66 S9G20     29.98R
TELLURIDE      NOT AVBL
WOLF CREEK PAS LGT SNOW  23  23 100 S12G18    30.07F VSB 3/4 WCI  12
$$

COZ009-010-012-014-032>034-037-058>063-260500-
...CENTRAL COLORADO...

CITY           SKY/WX    TMP DP  RH WIND       PRES   REMARKS
ASPEN          CLOUDY    38  34  85 SE3       29.95F
BUENA VISTA    FAIR      42  28  58 CALM      29.90F
COPPER MTN     SNOW      30  27  86 NW7       30.03F VSB 1/4 WCI  23
BERTHOUD PASS  HVY SNOW  23  12  63 NW12      30.03F VSB<1/4 WCI  12
COTTONWOOD PAS FAIR      37  27  65 NW6       29.96F
GUNNISON       FAIR      38  31  76 CALM      29.93F
KREMMLING      DRIZZLE   43  36  75 N12       29.96R
LEADVILLE      LGT SNOW  30  28  92 N8        29.97S FOG     WCI  22
MONARCH PASS   FAIR      28  19  69 W16       30.12F WCI  17
SALIDA         FAIR      42  31  64 CALM      29.98S
SUNLIGHT       MOCLDY    27  25  93 SW9G16    30.04F WCI  17
WILKERSON PASS SNOW      28  28 100 SW10G25   30.03F VSB 1/2 WCI  19
$$

COZ069>075-260500-
...SAN LUIS VALLEY/SANGRE DE CRISTO MOUNTAINS...

CITY           SKY/WX    TMP DP  RH WIND       PRES   REMARKS
ALAMOSA        CLOUDY    45  26  47 SW18G25   29.89R
LA VETA PASS   NOT AVBL
SAGUACHE       FAIR      45  23  42 N10       29.90S
$$

COZ035-036-038>040-260500-
...NORTHERN COLORADO FRONT RANGE...

CITY           SKY/WX    TMP DP  RH WIND       PRES   REMARKS
DENVER INTL AP CLOUDY    48  34  58 SE15      29.82F
DMNS CITY PARK   N/A     51  31  46 W3        29.82S
AURORA         CLOUDY    49  34  57 S14       29.83S
FRONT RANGE AP NOT AVBL
ERIE MUNI ARPT FAIR      47  32  56 CALM      29.82F
BOULDER MUN AP MOCLDY    52  23  32 NW6       29.83S
CENTENNIAL     CLOUDY    50  32  50 S9        29.83S
BROOMFIELD     MOCLDY    48  27  43 NW10      29.83F
FORT COLLINS   FAIR      52  28  39 CALM      29.83F
LONGMONT       FAIR      49  29  46 NW3       29.85S
$$

COZ041-046-047-076>085-087-088-260500-
...PIKES PEAK/PALMER DIVIDE AND SOUTHERN FOOTHILLS...

CITY           SKY/WX    TMP DP  RH WIND       PRES   REMARKS
COLO. SPRINGS  FAIR      43  31  62 SW5       29.90R
A. F. ACADEMY  MOCLDY    44  32  62 CALM      29.89R
SCHRIEVER AFB  FAIR      42  29  60 SE3       29.90R
ELLICOTT         N/A    N/A N/A N/A SE10      29.87S
FALCON         FAIR      39  30  69 S9        29.91S
FORT CARSON    FAIR      46  29  51 SW6       29.88R
LIMON          FAIR      41  37  86 SE5       29.86S
MONUMENT HILL  FAIR      37  30  75 SW7       29.91R
TRINIDAD       FAIR      53  27  36 SE6       29.83F
$$

COZ042>045-048>051-090-091-260500-
...NORTHEAST COLORADO...

CITY           SKY/WX    TMP DP  RH WIND       PRES   REMARKS
GREELEY ARPT   FAIR      48  35  60 E10       29.83F
AKRON          FAIR      45  30  55 SE12      29.84F
BURLINGTON     FAIR      41  32  70 E12       29.86F
WRAY           FAIR      45  32  61 CALM      29.87S
STERLING       FAIR      46  32  57 S5        29.84F
HOLYOKE        FAIR      45  34  65 SE6       29.87F
FORT MORGAN    FAIR      46  30  52 SE6       29.84F
$$

COZ086-089-092>099-260500-
...SOUTHEAST COLORADO...

CITY           SKY/WX    TMP DP  RH WIND       PRES   REMARKS
PUEBLO         FAIR      48  31  51 NE9       29.82S
LA JUNTA       FAIR      50  26  39 E13       29.81S
LAMAR          FAIR      52  21  29 SE12      29.82R
SPRINGFIELD      N/A     47  25  42 SE10      29.85S
$$




USA.gov is the U.S. government's official web portal to all federal, state and local government web resources and services.